Location: Asheville, NC
(35.6000°N, 82.5500°W)
Time: 04:03:42
(UTC-04:00)

HO-68 - Pass Details

Date: 03 January 2018
Orbit: 1192 x 1205 km, 100.1° (Epoch: 16 July)

Event Time Altitude Azimuth Distance (km) Brightness Sun altitude
Rises 06:41:13 0° 25° (NNE) 4,095 ? -11.8°
Reaches altitude 10° 06:44:11 10° 35° (NE) 3,127 ? -11.2°
Maximum altitude 06:50:28 33° 97° (E) 1,898 ? -10.0°
Drops below altitude 10° 06:56:42 10° 159° (SSE) 3,114 ? -8.8°
Sets 06:59:37 0° 169° (SSE) 4,075 ? -8.3°
